シェパンスキー彗星

C/1996 B1 ( Szczepanski )

English version
Home page
Updated on May 2, 1997

---------------------------------------------------------------------

・ プロフィール

発見日 1996年1月27日
発見光度 10.5等
発見者 Edward W. Szczepanski (Houston, TX)

・ 軌道要素

   The following improved orbital elements, by Kenji Muraoka 
  are from 458 observations  1996 Jan. 28  to  1996 June  8, 
  perturbations by  9 planets and 5 minor planets were taken 
  into account.   The mean residual is +/- 0.70 arc seconds.

      Epoch  =  1996 Feb.  7.0  TT       JDT = 2450120.5
          T  =  1996 Feb.  6.91369       +/- 0.00020 (m.e.) TT
       Peri. =  151.28265                +/- 0.00020
       Node  =  345.44199                +/- 0.00007   (2000.0)
       Incl. =   51.91826                +/- 0.00019
          q  =    1.4487789              +/- 0.0000033 AU
          e  =    0.9907294              +/- 0.0000149
        1/a  =   +0.0063989              +/- 0.0000103 1/AU
  orig. 1/a  =   +0.0062184 
  fut.  1/a  =   +0.0069000 

・ 星図

・ 1995年 9月10日〜1996年 3月18日
・ 1996年 2月27日〜1996年 8月25日

・ 光度変化

        m1 = 4.2 + 5 logΔ + 30.0 log r

---------------------------------------------------------------------

軌道要素は村岡健治氏の計算によるものです。
星図は StellaNavigator Ver.2.0 for Windows (アストロアーツ 編著 / アスキー出版局刊) で作成したものです。
光度グラフはComet for Windowsで作成したものです。

---------------------------------------------------------------------

Copyright(C) Seiichi Yoshida (comet@aerith.net). All rights reserved.